Year,Month,Day,Hour,Minute,Value (Times are PST for temperature in C)
2021,08,13,00,00,20.50
2021,08,13,00,01,20.50
2021,08,13,00,02,20.50
2021,08,13,00,03,20.50
2021,08,13,00,04,20.40
2021,08,13,00,05,20.40
2021,08,13,00,06,20.40
2021,08,13,00,07,20.30
2021,08,13,00,08,20.30
2021,08,13,00,09,20.30
2021,08,13,00,10,20.30
2021,08,13,00,11,20.30
2021,08,13,00,12,20.30
2021,08,13,00,13,20.30
2021,08,13,00,14,20.30
2021,08,13,00,15,20.30
2021,08,13,00,16,20.30
2021,08,13,00,17,20.20
2021,08,13,00,18,20.20
2021,08,13,00,19,20.20
2021,08,13,00,20,20.20
2021,08,13,00,21,20.20
2021,08,13,00,22,20.20
2021,08,13,00,23,20.20
2021,08,13,00,24,20.20
2021,08,13,00,25,20.20
2021,08,13,00,26,20.20
2021,08,13,00,27,20.20
2021,08,13,00,28,20.20
2021,08,13,00,29,20.10
2021,08,13,00,30,20.10
2021,08,13,00,31,20.10
2021,08,13,00,32,20.10
2021,08,13,00,33,20.10
2021,08,13,00,34,20.10
2021,08,13,00,35,20.10
2021,08,13,00,36,20.10
2021,08,13,00,37,20.00
2021,08,13,00,38,20.00
2021,08,13,00,39,20.00
2021,08,13,00,40,20.00
2021,08,13,00,41,19.90
2021,08,13,00,42,19.90
2021,08,13,00,43,19.90
2021,08,13,00,44,19.90
2021,08,13,00,45,19.90
2021,08,13,00,46,19.90
2021,08,13,00,47,19.90
2021,08,13,00,48,19.90
2021,08,13,00,49,19.80
2021,08,13,00,50,19.80
2021,08,13,00,51,19.80
2021,08,13,00,52,19.80
2021,08,13,00,53,19.80
2021,08,13,00,54,19.80
2021,08,13,00,55,19.70
2021,08,13,00,56,19.70
2021,08,13,00,57,19.70
2021,08,13,00,58,19.70
2021,08,13,00,59,19.70
2021,08,13,01,00,19.60
2021,08,13,01,01,19.60
2021,08,13,01,02,19.60
2021,08,13,01,03,19.60
2021,08,13,01,04,19.60
2021,08,13,01,05,19.50
2021,08,13,01,06,19.50
2021,08,13,01,07,19.50
2021,08,13,01,08,19.40
2021,08,13,01,09,19.40
2021,08,13,01,10,19.40
2021,08,13,01,11,19.40
2021,08,13,01,12,19.40
2021,08,13,01,13,19.30
2021,08,13,01,14,19.30
2021,08,13,01,15,19.30
2021,08,13,01,16,19.30
2021,08,13,01,17,19.30
2021,08,13,01,18,19.20
2021,08,13,01,19,19.20
2021,08,13,01,20,19.20
2021,08,13,01,21,19.20
2021,08,13,01,22,19.20
2021,08,13,01,23,19.10
2021,08,13,01,24,19.10
2021,08,13,01,25,19.10
2021,08,13,01,26,19.10
2021,08,13,01,27,19.00
2021,08,13,01,28,19.00
2021,08,13,01,29,19.00
2021,08,13,01,30,18.90
2021,08,13,01,31,18.90
2021,08,13,01,32,18.90
2021,08,13,01,33,18.90
2021,08,13,01,34,18.90
2021,08,13,01,35,18.80
2021,08,13,01,36,18.80
2021,08,13,01,37,18.80
2021,08,13,01,38,18.80
2021,08,13,01,39,18.80
2021,08,13,01,40,18.70
2021,08,13,01,41,18.70
2021,08,13,01,42,18.70
2021,08,13,01,43,18.70
2021,08,13,01,44,18.70
2021,08,13,01,45,18.70
2021,08,13,01,46,18.70
2021,08,13,01,47,18.60
2021,08,13,01,48,18.60
2021,08,13,01,49,18.60
2021,08,13,01,50,18.60
2021,08,13,01,51,18.60
2021,08,13,01,52,18.60
2021,08,13,01,53,18.60
2021,08,13,01,54,18.50
2021,08,13,01,55,18.50
2021,08,13,01,56,18.50
2021,08,13,01,57,18.50
2021,08,13,01,58,18.40
2021,08,13,01,59,18.40
2021,08,13,02,00,18.40
2021,08,13,02,01,18.40
2021,08,13,02,02,18.40
2021,08,13,02,03,18.30
2021,08,13,02,04,18.30
2021,08,13,02,05,18.30
2021,08,13,02,06,18.30
2021,08,13,02,07,18.30
2021,08,13,02,08,18.30
2021,08,13,02,09,18.30
2021,08,13,02,10,18.20
2021,08,13,02,11,18.20
2021,08,13,02,12,18.20
2021,08,13,02,13,18.20
2021,08,13,02,14,18.20
2021,08,13,02,15,18.20
2021,08,13,02,16,18.20
2021,08,13,02,17,18.20
2021,08,13,02,18,18.10
2021,08,13,02,19,18.10
2021,08,13,02,20,18.10
2021,08,13,02,21,18.10
2021,08,13,02,22,18.10
2021,08,13,02,23,18.10
2021,08,13,02,24,18.10
2021,08,13,02,25,18.10
2021,08,13,02,26,18.10
2021,08,13,02,27,18.10
2021,08,13,02,28,18.00
2021,08,13,02,29,18.00
2021,08,13,02,30,17.90
2021,08,13,02,31,17.90
2021,08,13,02,32,17.90
2021,08,13,02,33,17.90
2021,08,13,02,34,17.90
2021,08,13,02,35,17.90
2021,08,13,02,36,17.90
2021,08,13,02,37,17.80
2021,08,13,02,38,17.80
2021,08,13,02,39,17.80
2021,08,13,02,40,17.80
2021,08,13,02,41,17.80
2021,08,13,02,42,17.80
2021,08,13,02,43,17.80
2021,08,13,02,44,17.70
2021,08,13,02,45,17.70
2021,08,13,02,46,17.70
2021,08,13,02,47,17.70
2021,08,13,02,48,17.70
2021,08,13,02,49,17.70
2021,08,13,02,50,17.70
2021,08,13,02,51,17.70
2021,08,13,02,52,17.70
2021,08,13,02,53,17.70
2021,08,13,02,54,17.70
2021,08,13,02,55,17.70
2021,08,13,02,56,17.60
2021,08,13,02,57,17.60
2021,08,13,02,58,17.60
2021,08,13,02,59,17.60
2021,08,13,03,00,17.60
2021,08,13,03,01,17.60
2021,08,13,03,02,17.60
2021,08,13,03,03,17.50
2021,08,13,03,04,17.50
2021,08,13,03,05,17.50
2021,08,13,03,06,17.50
2021,08,13,03,07,17.40
2021,08,13,03,08,17.40
2021,08,13,03,09,17.40
2021,08,13,03,10,17.40
2021,08,13,03,11,17.40
2021,08,13,03,12,17.40
2021,08,13,03,13,17.40
2021,08,13,03,14,17.40
2021,08,13,03,15,17.40
2021,08,13,03,16,17.30
2021,08,13,03,17,17.30
2021,08,13,03,18,17.30
2021,08,13,03,19,17.30
2021,08,13,03,20,17.30
2021,08,13,03,21,17.30
2021,08,13,03,22,17.20
2021,08,13,03,23,17.20
2021,08,13,03,24,17.20
2021,08,13,03,25,17.20
2021,08,13,03,26,17.20
2021,08,13,03,27,17.20
2021,08,13,03,28,17.20
2021,08,13,03,29,17.20
2021,08,13,03,30,17.20
2021,08,13,03,31,17.20
2021,08,13,03,32,17.20
2021,08,13,03,33,17.10
2021,08,13,03,34,17.10
2021,08,13,03,35,17.10
2021,08,13,03,36,17.10
2021,08,13,03,37,17.10
2021,08,13,03,38,17.10
2021,08,13,03,39,17.10
2021,08,13,03,40,17.00
2021,08,13,03,41,17.00
2021,08,13,03,42,17.00
2021,08,13,03,43,17.00
2021,08,13,03,44,17.00
2021,08,13,03,45,17.00
2021,08,13,03,46,17.00
2021,08,13,03,47,16.90
2021,08,13,03,48,16.90
2021,08,13,03,49,16.90
2021,08,13,03,50,16.90
2021,08,13,03,51,16.90
2021,08,13,03,52,16.90
2021,08,13,03,53,16.90
2021,08,13,03,54,16.90
2021,08,13,03,55,16.90
2021,08,13,03,56,16.90
2021,08,13,03,57,16.90
2021,08,13,03,58,16.90
2021,08,13,03,59,16.90
2021,08,13,04,00,16.90
2021,08,13,04,01,16.80
2021,08,13,04,02,16.80
2021,08,13,04,03,16.80
2021,08,13,04,04,16.80
2021,08,13,04,05,16.80
2021,08,13,04,06,16.80
2021,08,13,04,07,16.80
2021,08,13,04,08,16.80
2021,08,13,04,09,16.80
2021,08,13,04,10,16.80
2021,08,13,04,11,16.80
2021,08,13,04,12,16.70
2021,08,13,04,13,16.70
2021,08,13,04,14,16.70
2021,08,13,04,15,16.70
2021,08,13,04,16,16.70
2021,08,13,04,17,16.70
2021,08,13,04,18,16.70
2021,08,13,04,19,16.70
2021,08,13,04,20,16.70
2021,08,13,04,21,16.70
2021,08,13,04,22,16.70
2021,08,13,04,23,16.70
2021,08,13,04,24,16.70
2021,08,13,04,25,16.70
2021,08,13,04,26,16.70
2021,08,13,04,27,16.70
2021,08,13,04,28,16.70
2021,08,13,04,29,16.70
2021,08,13,04,30,16.70
2021,08,13,04,31,16.70
2021,08,13,04,32,16.70
2021,08,13,04,33,16.70
2021,08,13,04,34,16.70
2021,08,13,04,35,16.70
2021,08,13,04,36,16.70
2021,08,13,04,37,16.70
2021,08,13,04,38,16.70
2021,08,13,04,39,16.70
2021,08,13,04,40,16.70
2021,08,13,04,41,16.70
2021,08,13,04,42,16.70
2021,08,13,04,43,16.70
2021,08,13,04,44,16.70
2021,08,13,04,45,16.70
2021,08,13,04,46,16.70
2021,08,13,04,47,16.70
2021,08,13,04,48,16.70
2021,08,13,04,49,16.60
2021,08,13,04,50,16.60
2021,08,13,04,51,16.60
2021,08,13,04,52,16.60
2021,08,13,04,53,16.60
2021,08,13,04,54,16.60
2021,08,13,04,55,16.60
2021,08,13,04,56,16.60
2021,08,13,04,57,16.60
2021,08,13,04,58,16.60
2021,08,13,04,59,16.60
2021,08,13,05,00,16.60
2021,08,13,05,01,16.60
2021,08,13,05,02,16.60
2021,08,13,05,03,16.60
2021,08,13,05,04,16.60
2021,08,13,05,05,16.60
2021,08,13,05,06,16.60
2021,08,13,05,07,16.60
2021,08,13,05,08,16.60
2021,08,13,05,09,16.60
2021,08,13,05,10,16.60
2021,08,13,05,11,16.60
2021,08,13,05,12,16.60
2021,08,13,05,13,16.60
2021,08,13,05,14,16.60
2021,08,13,05,15,16.60
2021,08,13,05,16,16.60
2021,08,13,05,17,16.60
2021,08,13,05,18,16.60
2021,08,13,05,19,16.60
2021,08,13,05,20,16.60
2021,08,13,05,21,16.60
2021,08,13,05,22,16.60
2021,08,13,05,23,16.60
2021,08,13,05,24,16.60
2021,08,13,05,25,16.70
2021,08,13,05,26,16.70
2021,08,13,05,27,16.70
2021,08,13,05,28,16.60
2021,08,13,05,29,16.70
2021,08,13,05,30,16.70
2021,08,13,05,31,16.70
2021,08,13,05,32,16.60
2021,08,13,05,33,16.70
2021,08,13,05,34,16.70
2021,08,13,05,35,16.70
2021,08,13,05,36,16.70
2021,08,13,05,37,16.70
2021,08,13,05,38,16.70
2021,08,13,05,39,16.70
2021,08,13,05,40,16.70
2021,08,13,05,41,16.70
2021,08,13,05,42,16.70
2021,08,13,05,43,16.70
2021,08,13,05,44,16.70
2021,08,13,05,45,16.70
2021,08,13,05,46,16.70
2021,08,13,05,47,16.70
2021,08,13,05,48,16.70
2021,08,13,05,49,16.70
2021,08,13,05,50,16.70
2021,08,13,05,51,16.70
2021,08,13,05,52,16.70
2021,08,13,05,53,16.70
2021,08,13,05,54,16.70
2021,08,13,05,55,16.70
2021,08,13,05,56,16.80
2021,08,13,05,57,16.80
2021,08,13,05,58,16.80
2021,08,13,05,59,16.80
2021,08,13,06,00,16.80
2021,08,13,06,01,16.90
2021,08,13,06,02,16.90
2021,08,13,06,03,16.90
2021,08,13,06,04,16.90
2021,08,13,06,05,16.90
2021,08,13,06,06,17.00
2021,08,13,06,07,17.00
2021,08,13,06,08,17.10
2021,08,13,06,09,17.10
2021,08,13,06,10,17.10
2021,08,13,06,11,17.10
2021,08,13,06,12,17.10
2021,08,13,06,13,17.10
2021,08,13,06,14,17.10
2021,08,13,06,15,17.10
2021,08,13,06,16,17.20
2021,08,13,06,17,17.20
2021,08,13,06,18,17.20
2021,08,13,06,19,17.20
2021,08,13,06,20,17.20
2021,08,13,06,21,17.20
2021,08,13,06,22,17.20
2021,08,13,06,23,17.20
2021,08,13,06,24,17.20
2021,08,13,06,25,17.30
2021,08,13,06,26,17.30
2021,08,13,06,27,17.30
2021,08,13,06,28,17.30
2021,08,13,06,29,17.30
2021,08,13,06,30,17.30
2021,08,13,06,31,17.30
2021,08,13,06,32,17.30
2021,08,13,06,33,17.30
2021,08,13,06,34,17.30
2021,08,13,06,35,17.30
2021,08,13,06,36,17.30
2021,08,13,06,37,17.20
2021,08,13,06,38,17.20
2021,08,13,06,39,17.20
2021,08,13,06,40,17.20
2021,08,13,06,41,17.20
2021,08,13,06,42,17.20
2021,08,13,06,43,17.20
2021,08,13,06,44,17.30
2021,08,13,06,45,17.30
2021,08,13,06,46,17.30
2021,08,13,06,47,17.30
2021,08,13,06,48,17.30
2021,08,13,06,49,17.30
2021,08,13,06,50,17.30
2021,08,13,06,51,17.30
2021,08,13,06,52,17.30
2021,08,13,06,53,17.30
2021,08,13,06,54,17.30
2021,08,13,06,55,17.30
2021,08,13,06,56,17.30
2021,08,13,06,57,17.30
2021,08,13,06,58,17.30
2021,08,13,06,59,17.30
2021,08,13,07,00,17.30
2021,08,13,07,01,17.30
2021,08,13,07,02,17.30
2021,08,13,07,03,17.30
2021,08,13,07,04,17.30
2021,08,13,07,05,17.30
2021,08,13,07,06,17.30
2021,08,13,07,07,17.30
2021,08,13,07,08,17.30
2021,08,13,07,09,17.30
2021,08,13,07,10,17.30
2021,08,13,07,11,17.30
2021,08,13,07,12,17.30
2021,08,13,07,13,17.40
2021,08,13,07,14,17.40
2021,08,13,07,15,17.40
2021,08,13,07,16,17.40
2021,08,13,07,17,17.40
2021,08,13,07,18,17.40
2021,08,13,07,19,17.40
2021,08,13,07,20,17.40
2021,08,13,07,21,17.40
2021,08,13,07,22,17.50
2021,08,13,07,23,17.50
2021,08,13,07,24,17.60
2021,08,13,07,25,17.60
2021,08,13,07,26,17.60
2021,08,13,07,27,17.60
2021,08,13,07,28,17.60
2021,08,13,07,29,17.70
2021,08,13,07,30,17.70
2021,08,13,07,31,17.70
2021,08,13,07,32,17.70
2021,08,13,07,33,17.80
2021,08,13,07,34,17.80
2021,08,13,07,35,17.80
2021,08,13,07,36,17.80
2021,08,13,07,37,17.80
2021,08,13,07,38,17.80
2021,08,13,07,39,17.90
2021,08,13,07,40,17.90
2021,08,13,07,41,17.90
2021,08,13,07,42,18.00
2021,08,13,07,43,18.00
2021,08,13,07,44,18.00
2021,08,13,07,45,18.10
2021,08,13,07,46,18.10
2021,08,13,07,47,18.10
2021,08,13,07,48,18.20
2021,08,13,07,49,18.20
2021,08,13,07,50,18.20
2021,08,13,07,51,18.20
2021,08,13,07,52,18.30
2021,08,13,07,53,18.30
2021,08,13,07,54,18.30
2021,08,13,07,55,18.40
2021,08,13,07,56,18.50
2021,08,13,07,57,18.50
2021,08,13,07,58,18.60
2021,08,13,07,59,18.60
2021,08,13,08,00,18.70
2021,08,13,08,01,18.70
2021,08,13,08,02,18.80
2021,08,13,08,03,18.80
2021,08,13,08,04,18.90
2021,08,13,08,05,19.00
2021,08,13,08,06,19.00
2021,08,13,08,07,19.10
2021,08,13,08,08,19.20
2021,08,13,08,09,19.30
2021,08,13,08,10,19.40
2021,08,13,08,11,19.40
2021,08,13,08,12,19.50
2021,08,13,08,13,19.60
2021,08,13,08,14,19.60
2021,08,13,08,15,19.60
2021,08,13,08,16,19.70
2021,08,13,08,17,19.70
2021,08,13,08,18,19.80
2021,08,13,08,19,19.80
2021,08,13,08,20,19.80
2021,08,13,08,21,19.90
2021,08,13,08,22,19.90
2021,08,13,08,23,20.00
2021,08,13,08,24,20.10
2021,08,13,08,25,20.10
2021,08,13,08,26,20.20
2021,08,13,08,27,20.20
2021,08,13,08,28,20.30
2021,08,13,08,29,20.30
2021,08,13,08,30,20.40
2021,08,13,08,31,20.50
2021,08,13,08,32,20.50
2021,08,13,08,33,20.60
2021,08,13,08,34,20.70
2021,08,13,08,35,20.70
2021,08,13,08,36,20.80
2021,08,13,08,37,20.80
2021,08,13,08,38,20.90
2021,08,13,08,39,21.00
2021,08,13,08,40,21.10
2021,08,13,08,41,21.10
2021,08,13,08,42,21.20
2021,08,13,08,43,21.30
2021,08,13,08,44,21.40
2021,08,13,08,45,21.40
2021,08,13,08,46,21.40
2021,08,13,08,47,21.50
2021,08,13,08,48,21.50
2021,08,13,08,49,21.50
2021,08,13,08,50,21.60
2021,08,13,08,51,21.60
2021,08,13,08,52,21.70
2021,08,13,08,53,21.80
2021,08,13,08,54,21.80
2021,08,13,08,55,21.80
2021,08,13,08,56,21.90
2021,08,13,08,57,21.90
2021,08,13,08,58,22.00
2021,08,13,08,59,22.00
2021,08,13,09,00,22.10
2021,08,13,09,01,22.10
2021,08,13,09,02,22.20
2021,08,13,09,03,22.20
2021,08,13,09,04,22.20
2021,08,13,09,05,22.30
2021,08,13,09,06,22.30
2021,08,13,09,07,22.40
2021,08,13,09,08,22.50
2021,08,13,09,09,22.50
2021,08,13,09,10,22.60
2021,08,13,09,11,22.70
2021,08,13,09,12,22.70
2021,08,13,09,13,22.80
2021,08,13,09,14,22.80
2021,08,13,09,15,22.80
2021,08,13,09,16,22.80
2021,08,13,09,17,22.90
2021,08,13,09,18,22.90
2021,08,13,09,19,22.90
2021,08,13,09,20,23.00
2021,08,13,09,21,23.00
2021,08,13,09,22,23.10
2021,08,13,09,23,23.10
2021,08,13,09,24,23.20
2021,08,13,09,25,23.20
2021,08,13,09,26,23.30
2021,08,13,09,27,23.30
2021,08,13,09,28,23.40
2021,08,13,09,29,23.40
2021,08,13,09,30,23.50
2021,08,13,09,31,23.60
2021,08,13,09,32,23.60
2021,08,13,09,33,23.70
2021,08,13,09,34,23.80
2021,08,13,09,35,23.80
2021,08,13,09,36,23.90
2021,08,13,09,37,24.00
2021,08,13,09,38,24.10
2021,08,13,09,39,24.20
2021,08,13,09,40,24.40
2021,08,13,09,41,24.50
2021,08,13,09,42,24.60
2021,08,13,09,43,24.60
2021,08,13,09,44,24.70
2021,08,13,09,45,24.80
2021,08,13,09,46,24.90
2021,08,13,09,47,25.00
2021,08,13,09,48,25.10
2021,08,13,09,49,25.20
2021,08,13,09,50,25.30
2021,08,13,09,51,25.40
2021,08,13,09,52,25.50
2021,08,13,09,53,25.60
2021,08,13,09,54,25.70
2021,08,13,09,55,25.80
2021,08,13,09,56,25.80
2021,08,13,09,57,25.90
2021,08,13,09,58,26.00
2021,08,13,09,59,26.00
2021,08,13,10,00,26.10
2021,08,13,10,01,26.20
2021,08,13,10,02,26.20
2021,08,13,10,03,26.30
2021,08,13,10,04,26.30
2021,08,13,10,05,26.30
2021,08,13,10,06,26.30
2021,08,13,10,07,26.40
2021,08,13,10,08,26.50
2021,08,13,10,09,26.60
2021,08,13,10,10,26.70
2021,08,13,10,11,26.80
2021,08,13,10,12,26.90
2021,08,13,10,13,26.90
2021,08,13,10,14,27.00
2021,08,13,10,15,27.00
2021,08,13,10,16,27.10
2021,08,13,10,17,27.10
2021,08,13,10,18,27.20
2021,08,13,10,19,27.30
2021,08,13,10,20,27.40
2021,08,13,10,21,27.40
2021,08,13,10,22,27.50
2021,08,13,10,23,27.60
2021,08,13,10,24,27.70
2021,08,13,10,25,27.80
2021,08,13,10,26,27.90
2021,08,13,10,27,28.00
2021,08,13,10,28,28.10
2021,08,13,10,29,28.20
2021,08,13,10,30,28.30
2021,08,13,10,31,28.40
2021,08,13,10,32,28.50
2021,08,13,10,33,28.60
2021,08,13,10,34,28.70
2021,08,13,10,35,28.80
2021,08,13,10,36,28.80
2021,08,13,10,37,28.90
2021,08,13,10,38,28.90
2021,08,13,10,39,29.00
2021,08,13,10,40,29.10
2021,08,13,10,41,29.10
2021,08,13,10,42,29.10
2021,08,13,10,43,29.10
2021,08,13,10,44,29.10
2021,08,13,10,45,29.10
2021,08,13,10,46,29.20
2021,08,13,10,47,29.20
2021,08,13,10,48,29.20
2021,08,13,10,49,29.20
2021,08,13,10,50,29.20
2021,08,13,10,51,29.10
2021,08,13,10,52,29.10
2021,08,13,10,53,29.20
2021,08,13,10,54,29.20
2021,08,13,10,55,29.20
2021,08,13,10,56,29.30
2021,08,13,10,57,29.30
2021,08,13,10,58,29.30
2021,08,13,10,59,29.30
2021,08,13,11,00,29.30
2021,08,13,11,01,29.30
2021,08,13,11,02,29.40
2021,08,13,11,03,29.40
2021,08,13,11,04,29.50
2021,08,13,11,05,29.50
2021,08,13,11,06,29.50
2021,08,13,11,07,29.60
2021,08,13,11,08,29.60
2021,08,13,11,09,29.60
2021,08,13,11,10,29.60
2021,08,13,11,11,29.60
2021,08,13,11,12,29.70
2021,08,13,11,13,29.70
2021,08,13,11,14,29.70
2021,08,13,11,15,29.70
2021,08,13,11,16,29.70
2021,08,13,11,17,29.70
2021,08,13,11,18,29.80
2021,08,13,11,19,29.80
2021,08,13,11,20,29.90
2021,08,13,11,21,29.90
2021,08,13,11,22,29.80
2021,08,13,11,23,29.80
2021,08,13,11,24,29.80
2021,08,13,11,25,29.90
2021,08,13,11,26,29.90
2021,08,13,11,27,30.00
2021,08,13,11,28,30.10
2021,08,13,11,29,30.20
2021,08,13,11,30,30.40
2021,08,13,11,31,30.50
2021,08,13,11,32,30.60
2021,08,13,11,33,30.60
2021,08,13,11,34,30.70
2021,08,13,11,35,30.70
2021,08,13,11,36,30.80
2021,08,13,11,37,30.80
2021,08,13,11,38,30.90
2021,08,13,11,39,31.00
2021,08,13,11,40,31.10
2021,08,13,11,41,31.10
2021,08,13,11,42,31.20
2021,08,13,11,43,31.30
2021,08,13,11,44,31.30
2021,08,13,11,45,31.30
2021,08,13,11,46,31.40
2021,08,13,11,47,31.40
2021,08,13,11,48,31.40
2021,08,13,11,49,31.40
2021,08,13,11,50,31.50
2021,08,13,11,51,31.50
2021,08,13,11,52,31.50
2021,08,13,11,53,31.50
2021,08,13,11,54,31.50
2021,08,13,11,55,31.50
2021,08,13,11,56,31.40
2021,08,13,11,57,31.40
2021,08,13,11,58,31.40
2021,08,13,11,59,31.40
2021,08,13,12,00,31.40
2021,08,13,12,01,31.40
2021,08,13,12,02,31.40
2021,08,13,12,03,31.40
2021,08,13,12,04,31.40
2021,08,13,12,05,31.40
2021,08,13,12,06,31.50
2021,08,13,12,07,31.50
2021,08,13,12,08,31.50
2021,08,13,12,09,31.50
2021,08,13,12,10,31.60
2021,08,13,12,11,31.60
2021,08,13,12,12,31.60
2021,08,13,12,13,31.60
2021,08,13,12,14,31.70
2021,08,13,12,15,31.70
2021,08,13,12,16,31.70
2021,08,13,12,17,31.70
2021,08,13,12,18,31.70
2021,08,13,12,19,31.70
2021,08,13,12,20,31.70
2021,08,13,12,21,31.70
2021,08,13,12,22,31.60
2021,08,13,12,23,31.60
2021,08,13,12,24,31.60
2021,08,13,12,25,31.60
2021,08,13,12,26,31.60
2021,08,13,12,27,31.60
2021,08,13,12,28,31.60
2021,08,13,12,29,31.60
2021,08,13,12,30,31.60
2021,08,13,12,31,31.60
2021,08,13,12,32,31.60
2021,08,13,12,33,31.60
2021,08,13,12,34,31.60
2021,08,13,12,35,31.60
2021,08,13,12,36,31.70
2021,08,13,12,37,31.70
2021,08,13,12,38,31.70
2021,08,13,12,39,31.70
2021,08,13,12,40,31.70
2021,08,13,12,41,31.70
2021,08,13,12,42,31.70
2021,08,13,12,43,31.60
2021,08,13,12,44,31.60
2021,08,13,12,45,31.50
2021,08,13,12,46,31.50
2021,08,13,12,47,31.50
2021,08,13,12,48,31.50
2021,08,13,12,49,31.60
2021,08,13,12,50,31.60
2021,08,13,12,51,31.60
2021,08,13,12,52,31.60
2021,08,13,12,53,31.70
2021,08,13,12,54,31.60
2021,08,13,12,55,31.70
2021,08,13,12,56,31.70
2021,08,13,12,57,31.80
2021,08,13,12,58,31.80
2021,08,13,12,59,31.80
2021,08,13,13,00,31.80
2021,08,13,13,01,31.80
2021,08,13,13,02,31.80
2021,08,13,13,03,31.80
2021,08,13,13,04,31.80
2021,08,13,13,05,31.80
2021,08,13,13,06,31.90
2021,08,13,13,07,32.00
2021,08,13,13,08,32.10
2021,08,13,13,09,32.10
2021,08,13,13,10,32.20
2021,08,13,13,11,32.30
2021,08,13,13,12,32.30
2021,08,13,13,13,32.30
2021,08,13,13,14,32.30
2021,08,13,13,15,32.30
2021,08,13,13,16,32.30
2021,08,13,13,17,32.30
2021,08,13,13,18,32.20
2021,08,13,13,19,32.20
2021,08,13,13,20,32.20
2021,08,13,13,21,32.20
2021,08,13,13,22,32.20
2021,08,13,13,23,32.20
2021,08,13,13,24,32.30
2021,08,13,13,25,32.30
2021,08,13,13,26,32.40
2021,08,13,13,27,32.40
2021,08,13,13,28,32.50
2021,08,13,13,29,32.60
2021,08,13,13,30,32.60
2021,08,13,13,31,32.70
2021,08,13,13,32,32.70
2021,08,13,13,33,32.80
2021,08,13,13,34,32.90
2021,08,13,13,35,33.00
2021,08,13,13,36,33.10
2021,08,13,13,37,33.20
2021,08,13,13,38,33.20
2021,08,13,13,39,33.20
2021,08,13,13,40,33.30
2021,08,13,13,41,33.30
2021,08,13,13,42,33.30
2021,08,13,13,43,33.40
2021,08,13,13,44,33.40
2021,08,13,13,45,33.40
2021,08,13,13,46,33.50
2021,08,13,13,47,33.50
2021,08,13,13,48,33.50
2021,08,13,13,49,33.60
2021,08,13,13,50,33.60
2021,08,13,13,51,33.60
2021,08,13,13,52,33.70
2021,08,13,13,53,33.70
2021,08,13,13,54,33.70
2021,08,13,13,55,33.70
2021,08,13,13,56,33.70
2021,08,13,13,57,33.70
2021,08,13,13,58,33.70
2021,08,13,13,59,33.70
2021,08,13,14,00,33.70
2021,08,13,14,01,33.60
2021,08,13,14,02,33.50
2021,08,13,14,03,33.40
2021,08,13,14,04,33.30
2021,08,13,14,05,33.30
2021,08,13,14,06,33.30
2021,08,13,14,07,33.30
2021,08,13,14,08,33.40
2021,08,13,14,09,33.40
2021,08,13,14,10,33.40
2021,08,13,14,11,33.40
2021,08,13,14,12,33.50
2021,08,13,14,13,33.50
2021,08,13,14,14,33.60
2021,08,13,14,15,33.60
2021,08,13,14,16,33.60
2021,08,13,14,17,33.60
2021,08,13,14,18,33.50
2021,08,13,14,19,33.40
2021,08,13,14,20,33.30
2021,08,13,14,21,33.30
2021,08,13,14,22,33.30
2021,08,13,14,23,33.20
2021,08,13,14,24,33.20
2021,08,13,14,25,33.00
2021,08,13,14,26,32.90
2021,08,13,14,27,32.80
2021,08,13,14,28,32.80
2021,08,13,14,29,32.80
2021,08,13,14,30,32.80
2021,08,13,14,31,32.80
2021,08,13,14,32,32.90
2021,08,13,14,33,32.90
2021,08,13,14,34,32.90
2021,08,13,14,35,32.90
2021,08,13,14,36,33.00
2021,08,13,14,37,33.00
2021,08,13,14,38,33.00
2021,08,13,14,39,33.00
2021,08,13,14,40,33.00
2021,08,13,14,41,33.10
2021,08,13,14,42,33.10
2021,08,13,14,43,33.20
2021,08,13,14,44,33.20
2021,08,13,14,45,33.20
2021,08,13,14,46,33.30
2021,08,13,14,47,33.30
2021,08,13,14,48,33.30
2021,08,13,14,49,33.30
2021,08,13,14,50,33.30
2021,08,13,14,51,33.30
2021,08,13,14,52,33.40
2021,08,13,14,53,33.30
2021,08,13,14,54,33.30
2021,08,13,14,55,33.30
2021,08,13,14,56,33.30
2021,08,13,14,57,33.20
2021,08,13,14,58,33.20
2021,08,13,14,59,33.20
2021,08,13,15,00,33.20
2021,08,13,15,01,33.20
2021,08,13,15,02,33.10
2021,08,13,15,03,33.10
2021,08,13,15,04,33.10
2021,08,13,15,05,33.10
2021,08,13,15,06,33.10
2021,08,13,15,07,33.10
2021,08,13,15,08,33.10
2021,08,13,15,09,33.10
2021,08,13,15,10,33.10
2021,08,13,15,11,33.10
2021,08,13,15,12,33.10
2021,08,13,15,13,33.10
2021,08,13,15,14,33.20
2021,08,13,15,15,33.20
2021,08,13,15,16,33.20
2021,08,13,15,17,33.20
2021,08,13,15,18,33.20
2021,08,13,15,19,33.10
2021,08,13,15,20,33.00
2021,08,13,15,21,32.90
2021,08,13,15,22,32.80
2021,08,13,15,23,32.70
2021,08,13,15,24,32.70
2021,08,13,15,25,32.60
2021,08,13,15,26,32.40
2021,08,13,15,27,32.40
2021,08,13,15,28,32.40
2021,08,13,15,29,32.40
2021,08,13,15,30,32.40
2021,08,13,15,31,32.30
2021,08,13,15,32,32.30
2021,08,13,15,33,32.40
2021,08,13,15,34,32.40
2021,08,13,15,35,32.40
2021,08,13,15,36,32.40
2021,08,13,15,37,32.40
2021,08,13,15,38,32.40
2021,08,13,15,39,32.40
2021,08,13,15,40,32.40
2021,08,13,15,41,32.40
2021,08,13,15,42,32.30
2021,08,13,15,43,32.30
2021,08,13,15,44,32.30
2021,08,13,15,45,32.30
2021,08,13,15,46,32.30
2021,08,13,15,47,32.20
2021,08,13,15,48,32.20
2021,08,13,15,49,32.10
2021,08,13,15,50,32.10
2021,08,13,15,51,32.10
2021,08,13,15,52,32.00
2021,08,13,15,53,32.00
2021,08,13,15,54,31.90
2021,08,13,15,55,31.90
2021,08,13,15,56,31.90
2021,08,13,15,57,31.90
2021,08,13,15,58,31.90
2021,08,13,15,59,31.90
2021,08,13,16,00,31.90
2021,08,13,16,01,31.90
2021,08,13,16,02,31.80
2021,08,13,16,03,31.80
2021,08,13,16,04,31.70
2021,08,13,16,05,31.70
2021,08,13,16,06,31.60
2021,08,13,16,07,31.60
2021,08,13,16,08,31.50
2021,08,13,16,09,31.50
2021,08,13,16,10,31.50
2021,08,13,16,11,31.50
2021,08,13,16,12,31.40
2021,08,13,16,13,31.40
2021,08,13,16,14,31.40
2021,08,13,16,15,31.40
2021,08,13,16,16,31.40
2021,08,13,16,17,31.40
2021,08,13,16,18,31.40
2021,08,13,16,19,31.50
2021,08,13,16,20,31.50
2021,08,13,16,21,31.40
2021,08,13,16,22,31.50
2021,08,13,16,23,31.50
2021,08,13,16,24,31.50
2021,08,13,16,25,31.50
2021,08,13,16,26,31.40
2021,08,13,16,27,31.40
2021,08,13,16,28,31.30
2021,08,13,16,29,31.30
2021,08,13,16,30,31.20
2021,08,13,16,31,31.20
2021,08,13,16,32,31.10
2021,08,13,16,33,31.10
2021,08,13,16,34,31.10
2021,08,13,16,35,31.10
2021,08,13,16,36,31.00
2021,08,13,16,37,31.00
2021,08,13,16,38,31.00
2021,08,13,16,39,31.00
2021,08,13,16,40,31.00
2021,08,13,16,41,31.00
2021,08,13,16,42,31.00
2021,08,13,16,43,31.00
2021,08,13,16,44,31.00
2021,08,13,16,45,31.00
2021,08,13,16,46,31.00
2021,08,13,16,47,31.10
2021,08,13,16,48,31.10
2021,08,13,16,49,31.20
2021,08,13,16,50,31.20
2021,08,13,16,51,31.20
2021,08,13,16,52,31.20
2021,08,13,16,53,31.30
2021,08,13,16,54,31.30
2021,08,13,16,55,31.30
2021,08,13,16,56,31.30
2021,08,13,16,57,31.30
2021,08,13,16,58,31.30
2021,08,13,16,59,31.40
2021,08,13,17,00,31.40
2021,08,13,17,01,31.40
2021,08,13,17,02,31.50
2021,08,13,17,03,31.50
2021,08,13,17,04,31.60
2021,08,13,17,05,31.60
2021,08,13,17,06,31.70
2021,08,13,17,07,31.70
2021,08,13,17,08,31.70
2021,08,13,17,09,31.80
2021,08,13,17,10,31.80
2021,08,13,17,11,31.80
2021,08,13,17,12,31.80
2021,08,13,17,13,31.90
2021,08,13,17,14,31.90
2021,08,13,17,15,31.90
2021,08,13,17,16,31.90
2021,08,13,17,17,32.00
2021,08,13,17,18,32.00
2021,08,13,17,19,32.00